sat.trackr.live / text

‹ back to catalog

STARLINK-3700

NORAD 51956 · 2022-025A

PAYLOAD ACTIVE UNKNOWN

§ Identity

Operator
Country
US
Launch date
2022-03-09
Launch site
AFETR
Launch vehicle
Mass (kg)
RCS (m²)

Purposes: comms

External: N2YO · Heavens-Above · Gunter

§ Orbital elements

Epoch: 2026-09-20T01:18:56.874816Z

Period
94.01 min
Inclination
53.1605°
Eccentricity
0.0001371
Mean motion
15.31707249 rev/d
Perigee alt
469.8 km
Apogee alt
471.7 km
Semi-major
6,848.9 km
B*
8.4723e-5
RAAN
189.1058°
Arg perigee
87.5022°
Mean anomaly
272.6137°
Rev number
25,095

§ Raw data

STARLINK-37001 51956U 22025A   26263.05482494  .00002265  00000+0  84723-4 0  99942 51956  53.1605 189.1058 0001371  87.5022 272.6137 15.31707249250954

JSON: /api/v1/satellites/51956 · /tle

For live sub-satellite position, see the globe view (requires WebGL).

§ Visibility from observer

Set your observer location to see the next 7 days of passes ≥ 10°. The values pass through the URL so the page stays shareable.

No JS? Fill the form by hand. The geolocation button needs JavaScript.